Tracking 19634 objects as of 22-May-2019
HD Live streaming from Space Station
objects crossing your sky now

SL-24 R/B

Track SL-24 R/B now!
10-day predictions


NORAD ID: 31699
Int'l Code: 2007-026B
Perigee: 510.9 km
Apogee: 1,011.7 km
Inclination: 97.5 °
Period: 99.9 minutes
Semi major axis: 7132 km
RCS: 6.666 m2 (large)
Launch date: June 15, 2007
Source: Commonwealth of Independent States (former USSR) (CIS)
Launch site: TYURATAM MISSILE AND SPACE COMPLEX (TTMTR)

Note: This is a ROCKET BODY
aabbcc
Your satellite tracking list
Your tracking list is empty




NASA's NSSDC Master Catalog

Two Line Element Set (TLE):
1 31699U 07026B   19141.77769360  .00000055  00000-0  15218-4 0  9995
2 31699  97.4941  28.6671 0351044  82.3455 321.9988 14.41308339627087
Source of the keplerian elements: AFSPC